Theta_e
298 299 299 298 299 299 300 301 303 304 303 304 305 305 305 307 308 309 310 311 310 312 311 311 309 307 305 302 299 299 300 298 298 299 298 297 298 299 298 298 296 295 295 295 295 296 296 296 297 295 296 298 301 300 300 302 302 301 300 300 302 302
297 298 298 299 299 299 299 300 302 303 303 304 303 302 303 304 306 306 307 306 306 306 306 305 303 300 300 298 299 300 298 297 297 296 298 296 296 295 294 294 294 293 294 293 292 293 294 294 294 294 295 294 294 292 296 298 299 299 298 297 297 300
296 296 296 297 296 296 297 300 300 300 301 302 301 302 301 301 301 302 302 302 301 301 300 299 299 298 298 298 297 297 296 296 295 295 293 292 294 291 292 293 291 291 291 291 291 290 292 292 292 292 293 292 293 294 297 297 298 298 298 298 297 296
295 294 294 293 296 296 297 298 298 299 299 299 299 299 299 299 299 300 300 299 299 298 297 297 295 296 296 295 294 294 292 292 292 290 291 292 289 289 290 290 289 289 290 289 289 290 292 294 296 292 292 291 291 292 295 295 296 297 296 297 296 297
295 295 295 295 295 295 295 295 297 298 297 296 296 297 296 298 298 298 298 298 297 295 294 293 293 293 291 291 291 290 290 290 289 289 290 290 289 287 289 288 290 289 289 290 290 292 294 296 295 295 295 294 294 294 295 295 295 296 295 295 295 296
292 294 294 295 296 295 296 296 296 296 295 294 295 295 295 296 296 296 296 295 293 292 292 291 289 290 290 290 289 289 288 289 288 288 289 286 287 290 289 288 287 288 287 288 288 290 292 291 292 292 292 294 294 294 295 294 294 294 295 295 295 295
293 295 295 296 295 295 295 296 295 294 293 292 294 294 293 294 294 294 293 292 291 290 290 289 288 289 288 288 288 288 287 288 289 288 287 287 288 287 288 289 287 286 287 288 289 290 289 288 289 290 290 290 291 292 292 292 292 293 293 293 294 292
293 293 294 295 294 295 294 293 292 292 292 292 291 293 293 292 292 292 292 291 291 290 289 288 288 287 287 287 287 287 287 288 287 287 286 286 288 287 287 287 286 286 286 286 287 287 286 285 285 286 287 287 286 287 287 287 288 288 288 289 290 290
295 295 294 295 294 293 293 292 292 291 292 291 290 290 292 292 292 291 291 290 289 289 288 288 288 287 288 287 287 287 287 287 286 286 287 286 286 286 286 285 286 286 287 287 287 287 287 287 286 287 286 287 286 286 286 286 285 286 285 286 287 287
294 294 294 293 293 292 291 291 291 291 291 291 290 291 292 292 291 290 289 289 288 288 287 286 286 286 286 286 286 286 286 285 285 285 284 285 285 285 285 286 286 285 285 285 286 285 285 286 286 285 285 285 285 285 285 285 285 285 285 284 285 285
295 294 293 293 292 292 291 291 290 290 289 289 289 290 290 289 290 289 288 288 288 287 287 286 286 286 286 285 285 285 284 284 283 283 283 283 284 285 284 284 285 285 285 284 285 285 284 285 285 286 286 286 286 285 285 285 285 284 285 285 285 285
295 294 293 292 292 291 291 291 290 290 290 289 288 289 288 289 288 288 287 287 287 286 286 286 285 285 285 285 284 283 283 283 282 283 283 284 283 283 283 283 283 284 284 284 283 283 284 284 285 287 291 292 288 286 286 285 284 284 284 284 284 285
294 293 293 292 292 291 291 291 290 289 289 288 288 288 287 288 287 287 287 286 285 286 285 285 285 284 284 283 283 282 283 282 282 282 283 283 283 283 283 283 284 284 284 284 283 283 284 285 285 289 292 293 293 287 284 284 284 284 283 283 283 283
294 294 293 292 292 291 291 290 289 289 289 288 288 287 287 287 287 286 286 285 285 285 285 284 284 283 283 282 282 282 280 280 281 282 281 283 283 282 281 283 282 283 283 284 283 283 283 283 287 290 291 291 292 291 287 283 283 283 283 283 283 283
296 295 293 292 292 291 290 290 289 289 288 288 287 287 287 287 286 286 285 284 284 284 284 284 283 283 283 282 282 280 280 281 282 282 283 282 280 281 282 280 282 282 282 282 283 283 283 282 286 290 291 291 291 291 288 283 281 283 282 282 283 283
294 293 292 291 291 290 290 289 289 289 288 288 287 287 287 286 286 285 285 284 284 283 283 283 283 282 282 281 281 281 281 282 282 280 279 279 280 281 280 279 280 280 281 282 282 282 282 282 286 290 290 290 291 291 290 282 282 282 282 282 282 282
293 291 290 290 290 289 288 288 288 288 287 288 287 286 286 285 285 284 284 283 282 282 282 282 282 282 281 280 280 280 280 280 279 280 279 280 279 280 280 280 279 279 279 279 280 281 282 283 288 290 290 290 290 291 290 283 282 282 281 282 281 282
294 292 291 289 288 288 288 288 288 288 287 287 286 285 285 284 283 283 282 282 281 281 281 281 281 280 280 280 279 280 280 279 279 279 278 278 278 277 278 278 277 278 279 279 278 280 281 282 287 288 289 289 290 291 285 282 281 281 281 281 281 281
294 292 289 288 288 288 288 287 287 287 286 285 285 284 283 283 282 282 281 281 281 281 280 280 280 280 279 279 279 278 278 278 278 277 278 277 277 277 278 277 277 277 277 278 278 277 279 280 283 287 288 289 290 288 282 280 280 280 280 281 281 281
288 288 289 288 287 287 287 286 287 286 285 284 283 282 282 282 281 281 281 280 280 280 280 280 279 279 278 277 278 277 276 277 277 277 277 277 276 277 277 277 278 277 277 277 277 277 277 279 282 286 288 289 289 287 282 281 280 280 280 281 282 282
287 286 286 286 286 285 285 285 285 285 283 282 282 282 281 281 280 280 280 280 279 279 279 278 278 277 276 276 275 275 275 276 276 276 275 275 275 276 276 277 277 276 276 275 276 279 278 276 280 285 287 287 287 285 282 281 279 280 280 281 281 281
286 285 286 286 285 285 284 284 284 283 282 281 281 281 280 280 280 279 279 279 278 278 277 277 276 275 274 274 273 273 275 275 274 274 273 274 274 275 275 275 275 274 274 274 275 276 276 277 278 281 285 285 286 286 283 279 279 279 279 279 279 279
286 286 285 285 284 284 284 284 283 282 281 280 280 279 279 278 278 278 278 277 277 276 275 274 273 273 272 272 273 274 273 272 273 273 273 272 274 272 272 272 272 273 274 275 275 275 276 277 277 278 283 284 285 286 284 279 279 279 279 279 279 279
282 282 282 282 283 283 283 283 282 280 279 279 278 277 277 277 277 277 276 276 275 274 272 272 272 271 272 272 272 271 272 271 270 271 272 271 272 273 273 273 274 274 274 274 274 274 275 277 279 277 281 283 283 284 284 281 280 281 280 279 279 279
282 282 281 282 282 282 282 282 280 279 278 277 276 276 276 276 276 275 275 274 273 272 271 270 270 271 271 271 271 269 271 270 270 271 272 272 271 272 272 272 272 272 273 273 275 275 275 275 276 280 278 281 282 283 283 283 281 282 280 279 278 278
281 280 280 280 281 281 281 281 279 277 276 275 275 274 274 274 273 273 273 272 271 271 271 270 269 270 269 270 270 270 271 273 274 273 273 272 271 270 272 272 272 272 273 273 273 274 274 274 275 277 279 279 281 281 282 281 281 281 280 279 278 279
280 279 279 279 279 279 278 278 278 276 275 274 274 273 273 273 272 272 270 270 270 270 268 268 269 268 268 268 270 271 272 271 270 270 270 271 271 270 271 270 272 271 271 271 272 272 273 274 274 273 277 279 279 280 280 281 281 281 281 278 278 279
279 278 277 276 276 277 276 276 277 275 274 273 273 272 272 271 271 270 269 269 269 269 269 270 269 269 268 269 270 270 269 269 269 269 268 268 268 267 268 269 270 269 270 269 269 270 271 272 272 272 273 276 277 278 279 280 280 279 279 279 278 280
278 277 277 276 275 275 275 274 274 273 273 272 272 272 271 270 270 270 269 269 268 268 268 269 269 269 269 268 268 268 268 268 266 267 269 267 266 266 267 268 269 268 268 268 269 270 272 272 271 272 274 276 277 277 278 278 277 278 279 278 278 278
277 276 276 275 275 274 273 272 271 271 270 270 270 270 270 270 269 269 268 268 268 268 268 268 272 269 267 267 267 266 266 266 266 265 267 267 266 266 266 266 266 267 268 269 271 272 272 271 271 272 274 275 277 277 277 277 277 276 277 277 277 278
276 275 275 275 275 273 271 270 270 269 269 268 268 269 269 269 269 268 267 267 267 268 268 267 267 266 266 265 265 265 266 266 266 266 266 265 265 266 266 265 266 269 268 269 270 271 270 271 270 273 277 277 278 276 275 275 275 276 276 277 279 277
275 274 274 274 274 272 271 269 269 268 267 267 266 267 267 268 267 267 266 266 266 266 266 266 265 265 264 264 263 263 264 272 274 271 265 267 275 277 278 277 269 270 269 268 268 269 270 270 273 277 278 278 277 278 278 278 278 278 277 278 278 276
274 273 273 274 274 271 270 268 267 266 265 265 266 266 267 267 267 266 266 266 264 265 265 265 265 266 265 264 264 264 264 264 269 277 276 275 274 276 277 277 276 276 276 272 267 269 276 276 277 277 277 277 277 277 277 277 277 277 277 277 274 272
273 273 274 274 273 271 270 268 266 264 264 263 263 264 265 266 267 266 265 265 265 267 266 265 266 266 265 264 263 263 263 263 264 264 272 274 274 277 276 275 274 275 275 275 275 273 271 275 276 276 276 276 276 276 276 276 276 275 275 275 274 269
274 274 274 274 273 271 269 268 266 264 263 262 262 262 263 264 265 265 264 264 265 266 267 266 266 265 264 263 263 263 262 262 262 262 260 266 273 274 273 272 273 273 274 274 275 275 274 274 274 275 275 275 275 275 275 275 274 274 274 273 268 267
273 273 273 273 272 271 269 267 265 263 262 261 261 261 261 262 263 264 264 264 265 265 265 265 265 264 264 264 263 263 263 262 261 260 261 259 260 263 267 270 271 272 272 273 274 274 273 273 274 274 274 274 274 274 274 273 268 271 272 270 266 266
272 272 272 272 271 269 268 266 263 261 260 260 260 260 260 261 262 262 264 265 265 263 264 264 264 263 263 264 264 264 263 262 261 263 261 259 259 260 259 259 261 267 272 269 270 272 272 273 273 273 273 273 273 273 273 269 264 263 264 265 266 265
271 270 270 269 269 268 266 264 262 260 259 259 259 260 260 261 262 262 263 263 264 263 263 263 263 263 262 261 260 261 261 262 262 262 260 261 261 259 258 259 259 260 268 270 269 270 271 272 272 272 272 271 271 271 270 262 262 262 263 263 264 264
Wind_Speed
5 5 5 5 5 5 5 5 6 6 5 5 6 7 5 5 4 5 5 5 4 4 3 3 3 3 4 3 3 4 4 4 4 4 3 4 5 6 5 5 5 6 6 5 5 5 5 5 5 4 3 2 1 2 2 3 2 3 3 4 3 3
5 6 7 7 7 6 5 6 6 7 6 7 6 5 5 5 5 6 7 6 6 6 5 4 4 4 4 4 4 5 4 4 4 4 5 4 5 4 4 5 5 5 5 5 6 5 6 5 5 5 5 6 6 3 3 3 2 1 2 3 3 3
5 5 5 5 5 4 5 5 7 6 6 7 7 8 7 6 6 6 6 6 6 7 6 6 6 5 5 5 5 6 5 5 5 4 3 4 5 4 5 5 4 4 5 4 4 4 4 4 5 5 5 6 6 6 5 4 5 5 6 5 6 4
6 5 5 5 6 5 6 5 6 6 6 6 6 6 5 6 5 6 5 5 6 6 6 5 4 5 6 6 6 6 5 5 5 4 5 6 3 4 4 4 4 4 4 5 4 4 5 5 5 5 5 5 5 5 4 5 6 5 5 5 5 5
7 7 7 7 7 6 6 5 6 6 6 6 5 7 5 5 5 5 6 6 6 6 5 6 6 6 6 7 6 5 5 5 5 5 6 5 3 3 4 4 5 4 5 5 5 5 5 5 4 4 4 4 4 4 4 4 5 5 5 6 5 5
6 7 7 7 7 6 6 6 5 5 5 5 6 7 6 6 6 6 6 7 7 6 6 6 6 7 6 6 5 6 5 5 4 4 5 4 4 5 4 4 4 5 4 4 3 2 1 1 1 2 2 2 3 4 4 3 4 4 4 4 5 5
7 7 7 7 7 6 6 6 6 6 5 5 6 5 5 6 6 7 7 7 8 6 7 6 6 7 6 6 5 5 5 5 6 6 4 5 5 4 5 5 4 4 3 1 1 0 0 0 0 1 1 1 0 1 2 3 3 3 3 3 4 4
6 6 6 6 6 7 7 6 6 6 6 5 5 6 6 6 7 6 7 7 8 7 7 6 7 6 6 6 5 5 5 6 5 4 4 4 4 4 4 4 4 3 2 1 0 0 1 1 1 1 1 2 2 2 2 2 3 3 4 4 4 4
7 7 6 6 6 6 6 7 7 6 6 6 4 5 6 7 7 6 7 7 7 7 6 6 6 6 6 6 6 6 6 6 5 4 4 4 4 4 4 3 4 2 2 1 1 2 1 1 1 1 1 2 1 2 2 3 3 3 3 4 4 4
7 8 7 7 7 7 6 5 6 7 6 7 5 6 7 7 8 7 6 6 7 7 7 6 5 6 6 5 6 6 6 5 5 4 3 4 4 4 4 3 3 2 2 2 3 3 2 2 3 2 2 2 2 2 3 2 3 4 4 4 4 4
9 9 8 8 8 8 8 7 7 6 5 5 5 6 7 7 8 7 6 5 7 6 6 6 5 5 6 7 7 6 5 4 4 3 3 3 3 3 3 3 3 4 4 4 4 4 4 4 4 3 3 4 4 2 4 4 4 5 6 7 7 6
8 9 9 8 9 9 8 8 8 8 8 7 6 7 5 8 7 8 6 6 6 6 6 7 6 6 6 6 6 4 4 4 3 3 3 4 4 4 3 4 3 4 4 4 4 3 3 3 2 5 9 7 5 5 5 5 4 4 4 5 7 8
7 8 9 9 9 9 8 8 8 8 8 7 7 7 6 7 8 7 7 6 4 6 7 7 7 6 6 4 4 4 4 4 3 4 4 4 4 4 4 4 5 4 4 4 4 4 4 4 3 8 8 7 7 5 4 4 6 5 5 5 5 7
10 11 12 11 10 10 9 9 8 9 9 8 8 8 7 7 7 9 7 5 5 5 7 7 7 6 5 4 4 5 4 4 4 4 4 4 5 4 4 6 4 4 4 5 4 4 5 4 6 8 9 8 7 6 4 3 5 5 5 6 6 6
14 12 10 9 11 11 9 9 10 10 10 10 9 8 8 8 8 8 8 5 5 5 6 6 7 6 5 5 5 4 4 4 4 5 5 6 3 3 5 4 5 5 5 5 6 6 5 5 7 8 11 10 9 9 6 3 3 4 5 5 6 7
6 7 7 7 6 7 8 7 8 8 8 10 9 10 9 9 8 8 8 6 5 5 6 6 7 7 6 4 4 4 4 5 5 4 3 3 4 5 4 4 5 4 5 5 5 5 5 5 8 11 12 12 13 13 10 4 5 5 5 6 7 7
9 8 8 9 9 8 9 7 6 8 8 9 10 8 10 8 9 8 7 7 5 5 5 6 7 7 5 4 4 4 5 5 4 5 4 4 4 4 4 4 4 4 4 4 4 5 6 5 10 9 11 12 12 13 10 5 4 5 5 6 5 7
16 16 12 8 10 8 7 9 8 9 9 7 10 9 8 9 9 8 6 6 5 5 5 6 7 6 5 5 4 6 6 5 4 4 3 3 3 2 2 3 2 4 4 3 3 4 6 6 9 9 9 11 11 11 6 5 5 5 6 6 5 6
11 11 11 11 11 11 9 8 8 10 11 10 9 9 9 8 9 7 6 6 5 5 5 5 7 6 5 4 6 5 4 4 4 3 2 4 3 4 4 3 2 2 3 4 4 4 5 5 8 9 9 9 12 8 5 5 5 6 6 7 5 5
8 8 12 13 10 9 9 8 10 11 11 10 9 10 8 8 8 6 6 6 5 5 5 5 6 6 5 4 5 4 3 2 1 1 1 3 2 2 2 2 3 3 3 3 4 2 3 5 7 9 9 11 14 10 6 6 6 7 7 8 8 6
11 11 10 11 12 9 9 9 10 11 11 10 9 9 9 8 7 6 7 6 5 5 6 5 5 5 5 5 3 3 3 1 1 0 1 1 1 1 2 3 3 4 4 3 3 5 2 3 6 8 11 14 14 11 6 7 7 8 9 10 11 11
13 10 11 12 11 10 11 10 9 10 11 10 9 9 9 8 6 6 6 6 6 6 5 4 5 4 4 4 3 2 1 0 1 2 2 3 3 3 3 3 3 2 3 3 2 3 2 4 5 7 15 15 15 15 9 7 8 11 12 11 10 12
8 11 10 9 10 10 9 9 11 10 9 10 9 9 7 6 6 6 6 6 6 5 5 4 4 4 3 2 2 1 1 2 2 3 4 3 4 3 3 2 2 1 1 2 2 3 4 4 5 6 14 16 16 17 13 7 8 8 9 10 11 9
8 8 7 6 9 8 8 9 11 10 10 9 9 7 5 6 6 6 7 6 5 5 4 4 3 3 3 3 3 4 4 4 3 3 2 2 1 0 0 0 0 0 1 2 3 4 4 5 8 5 10 15 15 16 17 9 7 10 9 11 10 11
9 8 7 6 7 7 7 10 11 10 8 9 8 5 5 6 6 7 7 6 6 4 4 4 3 3 3 4 4 4 4 3 4 4 2 1 1 1 1 1 2 3 3 3 4 4 4 4 5 10 7 11 15 15 15 16 12 17 9 8 10 10
8 8 5 5 5 6 6 10 12 9 10 9 6 6 5 6 6 6 6 6 5 5 4 3 4 4 4 4 4 4 4 4 3 2 2 2 2 2 4 5 4 4 6 6 5 5 5 4 4 6 10 10 15 15 16 16 16 16 10 9 8 10
12 9 7 5 6 5 5 5 12 11 11 7 6 6 7 6 7 7 6 6 5 5 4 4 4 4 4 3 3 4 3 3 2 3 2 4 4 5 5 4 4 5 5 5 5 5 5 5 4 4 7 13 14 15 16 16 17 16 18 11 9 10
9 10 10 6 4 5 4 4 8 14 9 7 6 6 6 7 8 7 6 5 4 4 4 6 4 4 4 4 3 3 3 3 2 3 3 4 4 3 3 3 4 5 4 4 3 4 4 4 3 3 4 7 8 9 14 17 17 17 18 17 13 18
10 10 10 9 4 5 5 6 4 5 8 8 7 6 7 7 7 7 6 6 5 4 4 5 5 4 4 3 3 3 3 3 3 3 2 2 3 3 3 3 3 4 5 4 4 3 4 4 4 5 5 6 7 7 8 9 9 14 14 10 9 11
11 11 10 9 7 6 6 6 6 6 6 6 6 7 7 7 7 8 7 6 5 5 4 5 5 5 5 3 3 3 3 3 1 2 2 2 2 4 3 3 3 3 3 4 4 4 4 4 5 6 9 9 9 9 8 8 8 9 8 10 11 12
10 10 10 9 7 7 7 7 6 6 6 6 6 7 8 8 6 6 6 5 5 5 4 4 4 4 4 3 2 1 1 1 0 1 1 1 3 1 2 3 2 1 1 1 3 5 5 4 5 6 11 11 15 13 12 11 11 11 10 14 22 15
10 11 10 8 7 7 7 7 6 5 4 4 5 6 8 8 7 6 6 5 5 5 5 5 5 4 3 3 2 2 3 3 2 3 3 3 6 6 5 5 2 2 3 4 4 3 4 5 6 12 16 16 16 17 18 17 19 19 17 21 25 15
7 7 8 9 8 8 8 7 6 5 4 4 4 6 7 7 8 6 6 6 5 5 5 5 5 4 5 3 3 2 3 4 3 8 10 8 5 5 8 11 10 9 7 5 1 3 8 8 12 15 16 17 17 17 17 17 18 19 20 21 16 11
10 11 11 9 9 9 8 8 6 5 4 3 4 4 6 6 8 8 7 6 5 6 5 5 5 5 5 4 2 2 3 5 6 3 6 7 5 8 10 10 8 8 8 8 6 3 2 8 12 14 15 16 17 17 18 18 18 18 18 18 17 9
10 8 8 9 10 9 7 8 6 5 4 4 4 4 6 6 6 7 7 6 6 6 6 5 6 6 6 5 5 4 3 5 5 6 2 4 3 6 7 7 7 8 8 7 7 8 9 9 11 14 15 17 17 18 18 19 18 18 18 16 9 6
8 8 9 9 11 10 9 9 7 6 5 4 4 4 5 5 5 6 7 7 7 7 6 5 5 6 6 5 5 5 6 5 5 4 4 4 3 3 4 5 6 7 7 7 7 8 10 10 12 13 15 16 16 17 17 17 12 14 16 14 8 8
8 7 8 10 10 9 9 9 7 6 5 5 5 5 5 5 6 5 5 6 5 5 5 5 5 5 5 5 5 5 5 4 4 4 5 4 3 1 1 4 5 7 6 4 5 8 10 11 12 13 13 14 15 16 17 14 8 10 9 8 7 7
7 7 8 9 9 8 8 9 7 6 6 6 6 6 6 6 6 6 5 5 5 5 4 4 5 4 5 5 5 5 3 3 3 4 3 3 2 2 1 1 3 2 5 6 6 9 10 10 11 11 12 13 14 14 15 8 8 7 7 7 7 7
Wind_Direction
140 138 140 138 134 138 141 140 139 138 138 142 143 148 148 144 133 124 120 141 143 147 146 143 136 158 179 166 126 122 110 102 89 85 88 56 39 52 44 47 47 40 34 38 29 31 22 13 16 7 22 40 14 346 319 306 309 269 279 286 271 260
138 137 138 137 136 130 125 119 120 129 137 136 134 129 133 139 149 147 155 160 154 149 151 154 153 147 141 135 114 86 87 86 83 78 69 70 57 58 63 66 63 54 46 37 46 41 34 31 24 23 16 18 23 10 1 337 15 347 294 289 291 279
130 126 126 124 113 108 107 109 116 124 125 130 139 142 144 141 142 134 138 132 129 127 124 124 117 110 106 91 87 88 82 76 77 76 97 72 42 57 59 65 67 66 62 56 49 49 43 40 28 23 24 26 15 8 1 355 6 358 337 338 333 330
132 123 112 109 110 113 108 105 105 109 116 125 123 116 122 128 127 125 124 110 114 113 111 101 97 98 90 88 81 84 80 79 77 84 65 71 44 73 73 71 70 70 65 58 36 35 30 30 22 14 23 17 14 360 1 6 2 355 343 351 338 337
144 140 135 131 128 125 116 108 109 113 114 113 115 117 122 122 124 114 112 110 106 103 101 99 92 91 91 90 88 88 88 84 73 69 79 66 52 54 76 89 82 74 67 53 43 34 28 20 17 11 17 10 9 1 353 1 360 353 346 344 336 334
138 131 132 130 128 126 123 121 112 106 106 113 116 118 124 115 115 113 107 103 99 101 94 90 93 90 92 92 94 90 82 82 74 73 73 74 62 57 41 57 75 73 77 76 67 73 84 62 58 32 26 18 11 3 357 355 356 341 330 320 317 317
145 145 141 138 131 126 125 122 119 115 117 115 119 123 123 115 115 110 108 110 105 97 98 94 92 94 91 94 90 90 86 78 73 61 73 73 61 49 54 45 53 67 70 97 143 175 305 255 265 338 325 309 315 310 303 310 312 311 304 301 298 304
145 136 140 135 133 132 128 122 118 116 111 114 124 123 114 110 107 110 112 111 107 102 95 95 94 100 105 104 95 91 82 74 70 74 59 79 73 59 55 66 53 78 80 92 183 198 276 293 298 283 288 297 312 319 308 297 290 282 281 282 280 277
155 147 138 135 132 131 131 128 122 115 114 109 107 110 110 114 108 106 105 106 107 106 104 105 110 110 104 98 94 83 74 72 71 70 69 71 88 83 70 54 59 32 71 43 46 30 345 337 340 339 319 314 312 306 305 302 301 289 284 279 283 287
148 146 145 137 133 125 119 118 121 124 124 124 116 109 108 110 107 105 107 111 109 110 112 110 107 99 96 89 80 76 73 72 70 72 68 82 85 92 94 83 82 32 60 31 37 7 23 23 11 348 332 314 300 307 302 298 304 311 307 301 294 286
162 155 150 145 139 134 133 130 123 117 110 109 112 109 112 117 111 110 112 115 115 116 115 107 98 92 85 81 78 77 78 80 83 78 86 90 89 79 80 84 78 65 41 30 34 19 9 23 357 345 341 337 329 329 329 330 332 329 325 322 319 314
162 160 153 154 152 148 145 140 139 137 134 128 119 113 123 113 115 119 120 117 118 113 105 100 93 89 85 82 88 100 100 95 96 106 89 73 69 64 56 59 63 66 59 42 29 31 20 7 359 347 347 351 349 340 338 333 327 322 313 312 312 310
166 159 162 164 160 159 151 150 145 137 129 129 126 125 129 119 122 118 117 115 113 109 106 102 99 95 93 104 108 104 95 92 97 84 74 68 61 55 46 55 48 40 34 40 27 20 15 1 348 342 350 351 349 347 329 321 313 313 307 303 301 302
177 177 175 169 166 162 158 153 152 143 141 138 133 133 128 121 121 117 111 113 116 112 111 111 110 104 108 110 101 96 96 100 93 79 74 64 49 37 47 50 41 33 21 19 25 21 3 348 338 338 345 343 339 330 310 294 294 299 302 303 302 299
186 180 169 167 169 164 163 154 150 154 150 139 139 130 126 124 122 117 114 120 120 119 117 120 116 114 109 99 98 99 100 100 81 68 57 51 41 45 50 31 35 26 12 17 11 3 353 344 334 335 343 343 343 342 342 322 296 299 298 299 297 296
159 169 170 164 156 149 144 155 151 147 140 131 130 129 128 126 121 119 122 122 124 123 121 120 115 107 103 101 97 98 93 82 73 67 61 60 43 46 40 34 32 23 19 11 2 347 340 335 332 340 342 342 340 339 343 334 323 306 295 292 293 292
159 151 154 159 155 146 139 136 143 136 130 132 126 127 126 125 124 122 126 124 128 122 119 115 108 104 101 99 100 95 81 75 69 56 41 49 42 39 25 16 20 13 16 359 355 346 336 329 331 334 335 333 330 328 333 320 311 298 288 285 279 281
174 172 164 145 138 144 146 148 151 140 134 127 125 126 124 126 122 125 128 124 125 120 117 114 108 102 102 97 85 79 69 62 57 50 23 44 26 26 44 21 42 22 357 349 353 353 331 322 324 322 321 324 317 320 321 314 307 301 297 292 287 278
159 152 141 146 146 146 152 154 149 140 132 127 126 124 127 125 125 130 132 127 123 114 110 109 109 104 96 90 84 75 67 61 41 33 41 48 28 30 20 14 352 331 349 341 348 344 315 312 320 324 315 314 328 335 331 319 313 307 305 305 302 296
117 133 143 143 145 146 145 154 151 141 132 130 131 129 128 128 130 137 132 125 118 109 103 95 97 101 96 87 88 89 81 69 53 58 39 75 46 17 355 347 353 351 356 341 317 307 298 304 315 326 319 352 358 359 347 333 333 324 328 325 327 329
139 137 132 136 143 152 149 152 148 137 132 134 134 131 131 133 138 140 132 122 110 98 91 89 88 95 102 95 97 101 93 98 119 231 66 66 66 20 355 2 8 349 342 318 282 295 287 301 329 345 1 6 4 5 355 349 349 347 348 345 336 333
124 131 144 152 153 147 150 151 144 136 134 134 133 131 135 139 138 128 112 105 97 90 83 85 91 94 100 105 104 104 113 144 61 31 38 14 44 14 359 2 360 334 305 301 311 341 16 23 359 358 8 10 9 8 11 5 12 359 344 341 336 329
132 143 148 144 143 146 149 146 137 134 133 134 130 133 136 134 122 113 107 100 97 90 90 84 95 100 95 113 120 117 68 52 46 18 33 17 9 28 5 348 301 258 281 323 3 34 18 35 22 357 8 10 10 14 18 21 8 350 336 327 325 323
113 110 109 126 140 143 146 143 133 133 136 131 131 136 131 119 112 108 105 103 100 98 91 92 88 93 86 67 66 55 45 20 39 41 23 29 17 9 302 279 237 142 57 40 45 46 31 23 18 3 5 8 12 13 8 8 355 348 335 327 320 319
127 124 126 131 136 141 146 138 133 135 133 130 138 130 120 110 108 107 108 106 104 103 99 89 85 74 74 62 62 75 46 20 29 17 40 52 44 88 99 51 33 52 79 80 37 40 34 17 7 2 4 7 10 6 5 2 355 346 342 325 318 319
121 119 110 116 128 135 144 143 135 138 135 139 136 121 112 108 108 111 112 113 111 106 95 89 78 75 68 64 62 72 75 46 38 41 42 56 81 67 45 28 27 24 26 28 16 13 12 1 359 345 357 6 5 4 3 357 351 346 339 329 314 314
137 127 112 105 114 120 129 144 138 139 140 145 131 135 127 123 120 120 121 118 117 106 101 86 86 77 65 73 88 82 89 71 82 70 25 64 50 55 52 26 31 32 24 19 15 360 348 346 337 335 352 7 4 1 356 351 349 345 339 328 313 311
125 130 127 111 108 115 116 127 146 143 150 134 134 131 129 129 128 124 125 122 114 114 107 102 87 74 74 69 77 100 112 113 99 94 63 68 66 66 71 39 35 29 25 15 5 356 333 327 320 333 349 359 355 353 353 349 346 338 334 328 317 318
140 144 143 137 131 121 117 115 92 111 128 136 134 131 131 131 129 126 126 125 121 110 108 111 109 99 75 60 53 47 57 62 82 91 96 106 89 71 68 46 43 27 14 359 349 344 338 329 335 348 348 349 347 348 345 343 335 334 331 323 315 318
152 153 152 148 144 131 124 119 119 120 121 124 130 132 130 132 136 137 138 134 127 121 120 116 108 105 93 72 75 65 36 22 84 104 127 106 103 89 37 60 38 28 360 347 337 344 352 349 355 350 352 351 349 347 346 342 336 337 335 332 330 329
158 160 155 151 145 137 131 126 125 125 129 131 135 140 137 139 136 132 132 132 122 121 116 109 107 111 106 84 55 44 144 127 282 178 280 238 183 150 128 101 45 336 275 332 342 352 348 353 356 350 348 350 352 352 347 344 346 341 339 336 335 332
161 160 158 151 147 144 141 139 132 130 122 131 139 144 146 144 139 136 139 134 131 128 121 116 113 112 110 113 100 64 15 351 140 187 149 64 41 58 69 103 121 89 89 69 342 354 359 335 327 341 351 353 355 355 354 350 346 346 343 340 340 341
162 155 157 158 153 149 148 144 145 141 141 137 151 153 155 148 142 142 141 141 145 146 140 135 127 129 110 108 101 100 108 81 34 93 78 57 50 83 84 72 54 41 30 50 80 320 350 345 348 352 353 355 357 357 357 356 355 353 350 348 346 349
172 176 170 160 155 154 153 154 155 155 147 138 138 153 159 164 155 156 161 153 155 147 149 144 137 127 119 117 112 116 115 122 112 44 36 53 57 94 84 58 43 33 27 19 21 15 306 358 359 357 357 358 358 358 358 359 0 357 355 357 358 350
175 168 163 161 162 164 154 162 164 157 148 145 148 157 166 172 161 150 152 156 153 153 153 149 142 140 141 144 142 145 142 121 127 115 75 347 71 84 54 37 25 24 20 22 27 24 20 10 4 3 3 2 1 360 359 360 2 359 359 3 6 353
169 169 168 166 168 167 167 173 168 163 158 150 150 156 168 167 161 161 157 161 163 158 158 154 151 146 146 145 149 149 143 143 139 147 129 98 19 355 355 3 11 11 18 19 29 25 18 15 13 12 9 7 3 0 358 3 2 2 9 11 360 349
163 170 172 167 164 169 176 173 168 167 160 156 151 153 155 156 153 152 151 151 150 154 154 148 145 146 144 146 151 149 140 141 154 144 140 142 150 138 315 308 318 335 5 38 20 14 15 17 17 17 15 11 5 2 1 2 360 6 4 10 359 350
169 171 167 166 169 169 168 181 176 169 165 159 156 158 162 163 163 160 159 162 157 156 149 147 149 150 150 153 156 152 149 154 144 138 149 153 144 151 162 267 288 273 319 4 16 12 14 19 18 20 18 14 9 5 8 7 1 359 357 354 345 339